Regional Weather Roundup
Issued by NWS

Home | Current Version | Previous Version | Graphics & Text | Print | Product List | Glossary On
Versions: 1 2 3 4 5 6 7 8 9 10 11 12 13 14 15 16 17 18 19 20 21 22 23 24 25 26 27 28 29 30 31 32 33 34 35 36 37 38 39 40 41 42 43 44 45 46 47 48 49 50
000
ASUS43 KTOP 031059
RWRKS

WEATHER ROUNDUP FOR KANSAS
NATIONAL WEATHER SERVICE GOODLAND KS
600 AM CDT FRI JUL 03 2015

NOTE:  "FAIR" INDICATES FEW OR NO CLOUDS BELOW 12,000 FEET WITH NO
SIGNIFICANT WEATHER AND/OR OBSTRUCTIONS TO VISIBILITY.

KSZ001>006-013>018-027>032-041>047-031200-
NORTHWEST KANSAS

CITY           SKY/WX    TMP DP  RH WIND       PRES   REMARKS
GOODLAND       PTCLDY    59  56  89 W5        30.10R
HAYS           CLEAR     63  55  77 NW3       30.00R
HILL CITY      CLEAR     61  58  90 W5        30.02R
RUSSELL        PTCLDY    64  63  96 NW5       29.98R
$$

KSZ061>065-074>080-084>089-031200-
SOUTHWEST KANSAS

CITY           SKY/WX    TMP DP  RH WIND       PRES   REMARKS
DODGE CITY     MOCLDY    67  62  84 W6        30.02R
ELKHART          N/A     65  58  78 NW3         N/A
GARDEN CITY    PTCLDY    70  63  78 CALM      30.03S
GREAT BEND     CLEAR     64  61  88 N7        29.99R
LIBERAL        MOCLDY    66  61  82 NW7       30.05S
$$

KSZ066>073-081>083-090>101-031200-
SOUTHEAST KANSAS

CITY           SKY/WX    TMP DP  RH WIND       PRES   REMARKS
CHANUTE        FOG       69  69 100 CALM      29.91R VSB 1/2
COFFEYVILLE    MOCLDY    68  67  96 SE3       29.89R
HUTCHINSON     CLEAR     68  64  87 N9        29.94R
MEDICINE LODGE   N/A     65  63  93 NW6       29.94R
NEWTON         CLEAR     66  61  82 NW6       29.95S
PARSONS        MOCLDY    70  69  97 CALM      29.91R
WICHITA INTL   PTCLDY    67  65  93 SW3       29.92R
WICHITA JABRA  CLEAR     69  66  90 W7        29.92R
WINFIELD       PTCLDY    66  65  96 CALM      29.93S
$$

KSZ007>012-019>026-033>040-048>060-102>105-031200-
NORTHEAST KANSAS

CITY           SKY/WX    TMP DP  RH WIND       PRES   REMARKS
CONCORDIA      CLOUDY    67  67 100 N5        29.95R FOG
EMPORIA        CLEAR     66  65  96 CALM      29.90S FOG
LAWRENCE       LGT RAIN  65  63  93 NE7       29.92S FOG
MANHATTAN      CLOUDY    69  68  96 NE6       29.91S FOG
OLATHE IND     LGT RAIN  66  63  90 E5        29.93R
OLATHE EXE     LGT RAIN  65  63  93 NE6       29.92R
SALINA         CLOUDY    68  65  90 NW7       29.94R
TOPEKA BILLARD LGT RAIN  68  66  93 NE10      29.92R FOG
TOPEKA FORBES  MOCLDY    69  66  90 E7        29.91S FOG
$$


USA.gov is the U.S. government's official web portal to all federal, state and local government web resources and services.